Temp
-3 -3 -4 -3 -3 -3 -3 -4 -4 -4 -4 -4 -4 -4 -4 -4 -4 -4 -4 -4 -4 -4 -4 -5 -5 -5 -5 -5 -5 -5 -5 -5 -5 -5 -5 -5 -6 -6 -6 -6 -6 -6
-3 -3 -4 -4 -3 -3 -3 -3 -3 -3 -4 -4 -4 -4 -4 -3 -3 -3 -4 -4 -4 -4 -4 -5 -5 -5 -5 -5 -5 -5 -5 -5 -5 -5 -5 -5 -6 -6 -6 -6 -6 -6
-3 -3 -4 -4 -4 -3 -3 -3 -3 -3 -3 -4 -4 -4 -4 -3 -3 -3 -3 -4 -4 -4 -4 -4 -5 -5 -5 -5 -5 -5 -5 -5 -5 -5 -5 -5 -6 -6 -6 -6 -6 -6
-3 -3 -4 -4 -4 -4 -4 -3 -3 -3 -3 -4 -4 -4 -4 -4 -3 -3 -3 -4 -4 -4 -4 -5 -5 -5 -5 -5 -5 -5 -5 -5 -5 -5 -5 -5 -5 -6 -6 -6 -6 -6
-4 -3 -3 -4 -4 -4 -4 -4 -4 -3 -3 -4 -4 -4 -4 -4 -3 -3 -3 -4 -4 -4 -4 -5 -5 -5 -5 -5 -5 -5 -5 -5 -5 -5 -5 -5 -5 -5 -5 -6 -6 -6
-4 -3 -4 -4 -4 -4 -4 -4 -3 -3 -3 -4 -4 -4 -4 -4 -3 -3 -3 -4 -4 -4 -4 -5 -5 -5 -5 -5 -5 -5 -5 -5 -5 -5 -5 -5 -5 -5 -5 -5 -5 -5
-3 -3 -4 -4 -4 -4 -4 -4 -3 -3 -3 -4 -4 -4 -4 -3 -3 -3 -4 -4 -4 -4 -4 -5 -5 -5 -5 -5 -5 -5 -5 -5 -5 -5 -5 -5 -5 -5 -5 -5 -5 -5
-4 -3 -3 -4 -4 -4 -4 -4 -4 -3 -3 -4 -4 -4 -4 -3 -3 -3 -4 -4 -4 -4 -5 -5 -5 -5 -5 -5 -5 -5 -5 -5 -5 -5 -5 -5 -5 -5 -5 -5 -5 -5
-4 -4 -3 -3 -4 -4 -4 -4 -4 -4 -4 -4 -4 -4 -4 -4 -3 -3 -4 -4 -4 -4 -5 -5 -5 -5 -5 -5 -5 -5 -5 -5 -5 -5 -5 -5 -5 -5 -5 -5 -5 -5
-4 -4 -4 -4 -4 -4 -4 -4 -4 -4 -4 -4 -4 -4 -4 -4 -4 -4 -4 -4 -4 -5 -5 -5 -5 -5 -5 -5 -5 -5 -5 -5 -5 -5 -5 -5 -5 -5 -5 -5 -5 -5
-4 -4 -4 -4 -4 -4 -4 -4 -4 -4 -4 -4 -4 -4 -4 -4 -4 -4 -4 -4 -5 -5 -5 -5 -5 -5 -5 -5 -5 -5 -5 -5 -5 -5 -5 -5 -5 -5 -5 -5 -5 -5
-4 -4 -4 -4 -4 -4 -4 -4 -4 -4 -4 -4 -4 -4 -4 -4 -4 -4 -4 -4 -5 -5 -5 -5 -5 -5 -5 -5 -5 -5 -5 -5 -5 -5 -5 -5 -5 -5 -5 -5 -5 -5
-4 -4 -4 -4 -4 -4 -4 -4 -4 -4 -4 -4 -4 -4 -4 -5 -4 -4 -4 -4 -5 -5 -5 -5 -5 -5 -5 -5 -5 -5 -5 -5 -5 -5 -5 -5 -5 -5 -5 -5 -5 -5
-4 -4 -4 -4 -4 -4 -4 -4 -4 -4 -4 -4 -4 -4 -4 -5 -5 -5 -5 -4 -5 -5 -5 -5 -5 -5 -5 -5 -5 -5 -5 -5 -5 -5 -5 -5 -5 -5 -5 -5 -5 -5
-5 -5 -5 -4 -4 -4 -4 -4 -4 -4 -4 -4 -4 -4 -4 -4 -5 -5 -4 -4 -4 -5 -5 -5 -5 -5 -5 -5 -5 -5 -5 -5 -5 -5 -5 -5 -5 -5 -5 -5 -5 -5
-5 -5 -5 -5 -5 -5 -5 -5 -4 -4 -4 -4 -4 -4 -4 -4 -4 -4 -4 -4 -4 -4 -5 -5 -5 -5 -5 -5 -5 -5 -5 -5 -5 -5 -5 -5 -5 -5 -5 -5 -5 -5
-5 -5 -5 -5 -5 -5 -5 -5 -5 -4 -4 -4 -4 -4 -4 -4 -4 -4 -4 -4 -4 -4 -4 -5 -5 -5 -5 -5 -5 -5 -5 -5 -5 -5 -5 -5 -5 -5 -5 -5 -5 -5
-5 -5 -5 -5 -5 -5 -5 -5 -5 -5 -5 -5 -5 -4 -4 -4 -4 -4 -4 -4 -4 -4 -4 -4 -5 -5 -5 -5 -5 -5 -5 -5 -5 -5 -5 -5 -5 -5 -5 -5 -5 -5
-6 -6 -6 -6 -5 -5 -5 -5 -5 -5 -4 -5 -5 -5 -4 -4 -4 -4 -4 -4 -4 -4 -4 -4 -4 -5 -5 -5 -5 -5 -5 -5 -5 -5 -5 -5 -5 -5 -5 -5 -5 -5
-6 -6 -6 -6 -6 -5 -5 -5 -5 -5 -5 -4 -5 -5 -5 -4 -4 -4 -4 -4 -4 -4 -4 -4 -4 -4 -5 -5 -5 -5 -5 -5 -5 -5 -5 -5 -5 -5 -5 -5 -5 -5
-6 -6 -6 -6 -6 -5 -5 -5 -5 -5 -5 -5 -5 -5 -5 -5 -4 -4 -4 -4 -4 -4 -4 -4 -4 -4 -4 -5 -5 -5 -5 -5 -5 -5 -5 -5 -5 -5 -5 -5 -5 -5
-6 -6 -6 -6 -6 -6 -5 -5 -5 -5 -5 -5 -5 -5 -5 -5 -4 -4 -4 -4 -4 -4 -4 -4 -4 -4 -4 -5 -5 -5 -5 -5 -5 -5 -5 -5 -5 -5 -5 -5 -5 -5
-6 -6 -6 -6 -6 -5 -6 -6 -5 -5 -5 -5 -5 -5 -5 -5 -5 -4 -4 -4 -4 -4 -5 -5 -4 -4 -4 -5 -5 -5 -5 -5 -5 -5 -5 -5 -5 -5 -5 -5 -5 -5
-6 -6 -7 -6 -6 -6 -6 -6 -5 -5 -5 -5 -5 -5 -5 -5 -5 -4 -4 -4 -4 -4 -4 -5 -5 -4 -4 -4 -4 -4 -4 -4 -4 -5 -5 -5 -5 -5 -5 -5 -5 -5
-6 -6 -6 -7 -6 -6 -6 -6 -6 -5 -5 -5 -5 -5 -5 -5 -5 -5 -4 -4 -4 -4 -4 -5 -5 -5 -4 -4 -4 -4 -4 -4 -4 -4 -4 -5 -5 -5 -5 -5 -5 -5
-6 -6 -6 -6 -6 -6 -6 -6 -6 -6 -5 -5 -5 -5 -5 -5 -5 -5 -5 -5 -5 -5 -5 -5 -5 -5 -5 -5 -4 -4 -4 -4 -4 -4 -5 -5 -5 -5 -5 -5 -5 -5
Height
5949 5951 5952 5954 5955 5957 5958 5959 5960 5961 5962 5963 5963 5964 5964 5965 5965 5966 5966 5967 5967 5967 5968 5968 5969 5970 5970 5970 5970 5971 5971 5971 5971 5972 5972 5972 5973 5973 5974 5974 5975 5975
5949 5950 5952 5953 5955 5956 5957 5959 5960 5961 5962 5963 5963 5964 5964 5965 5965 5966 5966 5967 5967 5967 5968 5968 5969 5970 5970 5970 5971 5971 5971 5971 5972 5972 5972 5972 5973 5973 5974 5974 5975 5975
5948 5950 5951 5953 5954 5955 5956 5958 5959 5960 5962 5963 5963 5964 5964 5964 5965 5966 5966 5967 5967 5967 5968 5968 5969 5970 5970 5971 5971 5972 5972 5972 5972 5972 5972 5973 5973 5973 5974 5974 5975 5975
5946 5948 5950 5951 5953 5954 5956 5957 5958 5960 5961 5962 5963 5963 5964 5964 5965 5965 5966 5967 5967 5967 5968 5969 5969 5970 5971 5971 5972 5972 5973 5973 5973 5973 5973 5973 5974 5974 5974 5975 5975 5976
5944 5946 5948 5950 5952 5953 5955 5957 5958 5959 5960 5961 5962 5963 5964 5964 5965 5965 5966 5967 5967 5967 5968 5969 5970 5971 5971 5972 5973 5973 5974 5974 5974 5974 5974 5974 5974 5975 5975 5975 5975 5976
5942 5944 5947 5949 5951 5952 5954 5956 5957 5959 5960 5961 5962 5963 5963 5964 5965 5965 5966 5966 5967 5967 5968 5969 5970 5971 5972 5972 5973 5974 5974 5974 5975 5975 5975 5975 5975 5975 5975 5976 5976 5976
5940 5943 5945 5947 5949 5951 5953 5954 5956 5958 5959 5960 5961 5962 5963 5963 5964 5965 5966 5966 5967 5967 5968 5968 5969 5971 5972 5973 5973 5974 5975 5975 5975 5975 5976 5976 5976 5976 5976 5976 5976 5976
5938 5941 5943 5946 5948 5950 5951 5953 5955 5956 5958 5959 5961 5961 5962 5963 5964 5964 5965 5966 5966 5967 5967 5968 5969 5970 5972 5973 5974 5974 5975 5975 5976 5976 5976 5977 5977 5977 5977 5977 5977 5977
5935 5938 5941 5944 5946 5948 5950 5952 5953 5955 5957 5958 5959 5960 5961 5962 5963 5964 5965 5965 5966 5967 5967 5968 5969 5970 5971 5972 5973 5974 5975 5976 5976 5976 5977 5977 5977 5977 5977 5977 5977 5977
5933 5936 5939 5942 5944 5946 5948 5950 5951 5953 5955 5957 5958 5959 5960 5961 5962 5963 5964 5965 5966 5966 5967 5968 5969 5970 5971 5972 5973 5974 5975 5975 5976 5976 5977 5977 5977 5977 5977 5977 5977 5977
5931 5933 5936 5939 5942 5944 5946 5948 5949 5951 5953 5955 5957 5958 5958 5959 5960 5962 5963 5964 5965 5966 5967 5968 5969 5970 5971 5972 5973 5974 5975 5975 5976 5976 5976 5977 5977 5977 5977 5977 5977 5977
5929 5931 5934 5936 5939 5941 5943 5945 5947 5949 5951 5953 5955 5956 5957 5958 5959 5960 5961 5962 5964 5965 5966 5967 5968 5969 5970 5971 5972 5973 5974 5975 5975 5975 5976 5976 5976 5976 5976 5976 5976 5976
5926 5928 5931 5934 5936 5938 5940 5943 5945 5947 5948 5950 5952 5954 5955 5956 5957 5959 5960 5961 5962 5963 5965 5966 5967 5969 5970 5970 5971 5972 5973 5974 5974 5975 5975 5976 5976 5976 5976 5976 5975 5975
5924 5926 5929 5931 5933 5936 5938 5940 5942 5944 5946 5948 5950 5952 5953 5954 5955 5956 5958 5959 5960 5962 5963 5964 5966 5967 5968 5969 5970 5971 5972 5973 5973 5974 5974 5974 5975 5975 5975 5975 5975 5975
5921 5924 5926 5928 5931 5933 5935 5937 5940 5942 5943 5945 5947 5949 5951 5952 5953 5954 5955 5957 5958 5960 5961 5962 5964 5965 5967 5968 5969 5970 5971 5972 5972 5973 5973 5973 5974 5974 5974 5974 5974 5974
5919 5922 5924 5926 5928 5930 5932 5934 5936 5939 5941 5942 5944 5946 5948 5950 5951 5952 5953 5955 5956 5957 5959 5960 5962 5963 5965 5966 5967 5968 5969 5970 5971 5971 5971 5972 5972 5973 5973 5973 5973 5973
5918 5920 5922 5924 5925 5927 5929 5931 5933 5935 5938 5939 5941 5943 5945 5947 5949 5950 5951 5952 5953 5955 5956 5958 5959 5960 5962 5963 5965 5966 5967 5968 5969 5969 5970 5970 5970 5971 5971 5971 5971 5971
5916 5918 5920 5922 5923 5925 5927 5929 5930 5932 5935 5936 5938 5939 5941 5943 5946 5947 5948 5949 5951 5952 5954 5955 5957 5957 5959 5960 5962 5963 5965 5966 5967 5967 5968 5968 5968 5969 5969 5969 5969 5969
5914 5916 5918 5920 5922 5923 5925 5926 5928 5930 5932 5934 5935 5936 5937 5940 5942 5944 5945 5946 5948 5950 5951 5952 5954 5954 5955 5957 5959 5960 5962 5964 5965 5965 5966 5966 5967 5967 5967 5967 5967 5967
5912 5914 5916 5918 5920 5921 5923 5924 5926 5927 5929 5930 5932 5932 5934 5936 5938 5940 5942 5943 5945 5946 5947 5949 5950 5952 5953 5954 5955 5957 5959 5961 5962 5963 5964 5964 5964 5965 5965 5965 5965 5965
5910 5912 5914 5916 5918 5919 5921 5922 5923 5924 5926 5927 5929 5930 5930 5932 5934 5936 5938 5940 5941 5942 5944 5945 5947 5948 5949 5950 5952 5954 5955 5957 5959 5960 5961 5961 5962 5962 5962 5963 5963 5963
5907 5909 5912 5914 5915 5917 5919 5920 5921 5922 5923 5924 5926 5927 5928 5928 5930 5932 5934 5936 5938 5939 5940 5942 5943 5945 5946 5947 5948 5950 5952 5954 5956 5957 5958 5959 5959 5959 5960 5960 5960 5961
5905 5907 5909 5911 5913 5915 5916 5917 5919 5920 5921 5922 5923 5924 5925 5926 5927 5929 5930 5932 5934 5936 5937 5938 5939 5941 5942 5944 5945 5946 5948 5950 5952 5954 5955 5956 5956 5956 5957 5957 5958 5958
5902 5904 5906 5908 5910 5912 5914 5915 5916 5917 5918 5919 5920 5921 5922 5923 5924 5925 5927 5928 5930 5932 5934 5935 5936 5937 5938 5940 5941 5943 5945 5947 5949 5951 5952 5953 5953 5953 5953 5954 5954 5955
5899 5901 5902 5904 5907 5909 5911 5912 5913 5914 5915 5916 5918 5919 5920 5920 5921 5922 5924 5925 5927 5928 5930 5931 5932 5933 5935 5936 5938 5939 5941 5944 5946 5947 5949 5949 5949 5949 5950 5951 5951 5952
5896 5898 5900 5901 5903 5905 5907 5909 5910 5911 5913 5914 5915 5916 5917 5918 5918 5919 5920 5922 5923 5924 5926 5927 5929 5930 5932 5933 5934 5936 5938 5940 5942 5944 5945 5946 5946 5946 5947 5948 5948 5948
Wind_Speed
12 13 13 13 13 12 12 11 11 9 8 7 6 5 4 4 4 4 4 4 4 4 3 2 1 1 2 2 3 3 3 3 3 3 4 4 4 4 4 4 4 4
13 13 14 14 13 13 12 12 11 10 9 8 7 6 6 5 5 4 4 4 4 4 4 3 2 1 2 3 4 4 4 4 4 4 5 5 5 5 5 5 4 5
13 13 13 14 14 14 13 13 12 11 10 9 8 7 7 6 6 5 4 4 4 4 4 3 3 3 5 6 7 7 7 7 7 7 7 7 6 6 5 5 4 4
14 13 14 14 15 15 14 13 13 12 11 10 9 9 8 8 7 5 4 4 4 5 5 4 5 6 8 9 9 9 9 9 9 9 9 9 8 7 7 6 5 5
16 15 14 14 15 15 14 13 13 12 11 10 10 10 9 9 8 5 4 4 5 6 6 7 8 10 11 10 10 10 9 9 9 9 9 10 9 9 9 8 7 7
17 15 14 14 14 14 14 13 13 12 11 10 10 10 10 9 8 6 4 4 6 7 8 10 11 12 11 11 10 9 9 9 9 9 8 9 9 9 9 9 8 8
17 16 15 14 14 14 14 14 13 12 11 11 11 11 11 10 9 7 5 5 7 9 10 12 13 13 11 10 9 9 8 8 8 8 8 8 8 8 8 8 8 8
19 18 16 15 15 14 14 14 13 13 12 11 11 12 12 12 10 9 7 6 8 10 12 13 13 13 11 10 9 8 7 7 7 7 7 7 7 7 7 7 7 7
22 20 18 16 15 15 15 15 14 14 12 12 12 13 13 13 11 10 9 8 8 10 12 13 14 13 11 9 8 7 6 6 6 6 6 6 6 5 6 6 6 5
23 21 20 18 16 16 16 16 16 15 13 12 13 14 14 14 13 11 10 9 9 10 12 13 13 12 10 9 7 6 5 5 5 5 5 5 4 4 4 4 4 4
23 22 20 19 18 18 18 18 17 17 15 13 13 14 15 15 14 12 11 10 10 11 12 12 12 11 10 9 7 5 4 3 3 4 4 3 3 3 3 3 3 2
23 22 21 21 20 20 19 19 19 18 17 15 14 14 15 16 15 14 12 12 12 12 12 12 12 11 10 8 7 5 3 2 1 1 2 2 2 1 1 1 1 1
23 23 22 22 22 21 21 20 20 19 19 18 16 15 15 16 17 16 14 13 13 13 12 12 12 12 11 9 7 6 4 2 2 1 1 1 2 2 2 2 2 1
22 22 22 22 22 22 21 21 20 20 19 19 18 16 15 16 17 17 17 15 14 14 14 13 12 13 12 11 9 8 6 4 2 2 2 2 3 3 3 4 4 3
18 19 20 21 21 21 20 20 19 19 19 20 19 18 17 17 18 19 19 17 16 15 15 15 14 14 15 14 12 11 9 6 4 3 4 4 4 4 5 5 6 6
13 15 17 19 20 20 20 20 20 19 19 19 20 20 19 19 19 20 20 19 19 17 17 16 16 16 17 17 16 14 12 9 6 5 5 6 6 5 6 7 7 7
11 12 13 15 17 18 19 20 20 20 20 19 20 20 20 20 20 21 21 21 21 20 18 17 18 19 19 19 19 17 15 12 10 8 7 7 8 7 7 7 8 9
11 10 10 12 14 15 17 19 20 21 20 20 20 21 21 21 21 21 22 22 22 22 20 18 19 20 21 21 21 20 18 16 14 11 10 9 10 10 9 9 9 10
13 11 10 10 11 13 14 16 18 19 20 21 21 22 23 22 22 22 22 23 23 23 22 21 20 21 21 21 22 22 21 19 17 14 13 12 12 12 12 11 11 11
15 14 12 11 11 12 12 13 15 17 19 21 22 23 24 23 23 23 22 23 23 23 24 23 22 21 22 22 23 23 23 22 20 17 15 14 14 14 14 14 13 12
17 16 14 13 12 12 12 12 13 15 17 19 21 23 24 24 25 24 23 23 24 24 25 24 24 23 23 23 23 23 24 23 22 20 18 17 17 16 16 16 16 14
18 18 17 16 14 13 12 12 13 14 16 18 19 21 23 24 25 25 24 24 24 24 25 25 25 25 25 24 24 24 24 24 23 22 20 19 19 19 18 18 18 17
20 19 19 18 17 15 13 13 14 14 15 16 18 19 21 23 24 25 25 25 25 24 24 25 26 26 26 26 26 26 25 24 23 23 21 21 21 21 20 19 19 19
20 20 20 21 20 17 16 15 15 15 15 16 17 18 19 21 23 24 25 25 25 24 24 25 26 27 27 28 28 27 26 25 24 23 22 22 22 23 22 21 21 21
21 21 22 22 22 20 19 17 16 17 17 16 17 17 18 19 21 22 23 23 24 24 24 25 25 26 27 28 29 28 27 26 25 24 23 23 24 25 24 23 22 22
23 22 23 24 23 23 22 21 19 19 18 17 17 18 19 19 19 20 21 22 23 24 24 24 24 25 26 27 28 28 28 27 26 25 25 25 25 26 26 24 23 23
Wind_Direction
186 187 195 202 204 201 200 201 203 204 210 217 219 223 224 220 219 216 222 237 243 240 235 232 226 147 99 90 89 79 74 82 93 101 103 104 101 98 96 93 88 85
196 192 196 204 208 208 209 210 211 210 214 220 222 227 229 227 226 220 220 231 237 238 233 218 201 143 111 104 101 95 87 86 93 101 105 106 102 97 94 92 90 88
207 200 200 207 212 213 214 215 217 216 216 220 223 227 231 233 234 228 219 220 223 226 219 203 181 142 125 118 111 105 98 93 92 97 105 109 108 104 100 95 93 91
213 208 206 210 215 218 219 221 223 223 222 223 227 231 234 237 239 234 221 212 210 209 200 187 164 142 132 126 118 112 106 100 95 95 99 104 107 107 104 101 101 99
215 211 209 211 218 223 225 227 229 230 229 229 233 237 239 244 246 241 226 208 201 196 186 174 158 145 138 133 126 119 112 106 102 99 98 100 101 102 100 99 98 100
214 212 210 211 218 225 229 232 235 236 237 238 242 245 248 253 255 249 232 206 195 191 180 169 158 150 144 138 131 124 116 109 104 100 98 99 100 99 98 96 95 97
216 213 210 210 215 222 229 234 237 237 238 240 244 249 253 257 260 255 239 211 196 189 179 170 163 156 151 145 136 127 118 110 103 98 94 92 92 94 94 94 94 96
222 219 214 212 214 221 228 234 238 238 236 236 240 244 249 255 259 257 244 220 203 191 181 174 168 163 159 152 142 131 120 110 102 97 93 87 85 86 87 87 89 91
221 223 222 220 219 223 230 235 239 241 237 235 237 241 247 253 257 257 249 231 213 199 188 182 177 173 168 159 147 136 123 113 105 99 94 89 83 81 82 84 85 87
219 222 225 226 225 227 232 236 240 243 241 237 237 241 246 251 255 256 252 240 225 211 200 193 188 184 177 166 155 142 126 116 110 106 101 94 87 82 79 80 80 83
220 222 224 226 228 229 231 235 239 243 243 239 237 239 244 251 255 256 253 247 236 225 215 208 201 195 188 177 166 153 135 119 114 113 110 106 97 86 79 76 79 79
220 222 224 225 227 229 230 233 236 241 243 241 237 237 241 248 253 256 254 251 246 238 231 224 213 205 200 194 182 169 158 150 148 132 122 123 126 115 95 69 78 94
220 221 223 225 227 229 231 232 234 237 241 241 239 236 237 244 250 253 254 253 251 247 242 236 225 214 209 208 206 198 188 185 200 222 212 178 177 195 223 251 261 245
221 223 224 225 227 230 232 233 234 236 239 241 241 237 235 238 243 248 251 252 253 251 248 244 235 224 218 217 220 223 218 211 216 234 241 229 211 213 225 241 253 260
219 223 225 227 229 230 232 233 233 235 238 241 242 240 236 235 239 243 247 249 250 250 249 247 241 231 226 224 227 231 231 228 232 246 251 244 231 222 224 233 244 255
212 218 223 227 228 229 230 231 231 231 234 238 240 240 238 236 238 241 243 245 246 246 245 245 243 237 231 229 229 232 236 238 240 249 257 256 247 235 228 229 238 248
199 206 215 222 226 229 229 229 229 227 228 232 237 239 238 237 237 240 242 243 244 245 243 240 240 239 235 233 231 232 235 240 244 249 255 259 256 247 239 235 237 243
194 198 207 216 223 227 229 229 229 227 225 227 232 236 237 236 235 237 241 243 244 245 244 240 237 238 237 234 233 232 233 237 243 249 253 258 259 255 249 244 242 243
196 197 203 212 220 225 228 230 231 229 225 223 226 232 234 233 233 234 238 242 244 244 244 242 238 237 237 235 233 233 232 234 239 246 253 257 259 258 253 250 249 249
204 203 205 212 219 225 228 230 230 230 227 222 222 228 232 232 231 231 233 237 241 243 243 242 240 238 238 236 235 234 233 233 236 242 250 256 258 258 255 253 254 255
214 212 212 213 218 224 228 230 230 229 229 225 222 225 230 232 231 230 230 231 236 240 242 242 241 239 238 238 237 235 234 233 234 237 244 254 259 258 255 254 256 258
223 222 219 217 218 221 225 230 230 229 230 229 225 224 229 233 233 231 230 229 231 236 240 241 241 239 238 238 238 237 235 233 234 236 241 250 257 259 258 256 256 257
225 225 225 223 221 219 221 227 231 230 231 231 229 227 228 233 235 232 230 229 229 231 235 239 240 239 237 237 238 238 236 235 234 235 239 247 255 259 260 258 256 256
227 226 225 226 225 222 221 225 230 232 232 231 231 229 228 230 234 233 231 231 230 230 232 235 238 239 238 238 238 239 238 237 236 235 239 247 254 258 259 259 258 257
230 227 225 227 229 227 225 226 228 231 233 233 233 233 231 230 233 235 234 232 232 232 232 233 236 239 240 240 241 241 240 239 238 237 240 246 252 255 257 259 258 257
231 229 226 226 230 231 231 229 229 231 234 235 236 236 235 233 234 236 236 234 233 233 234 234 234 237 240 242 243 244 243 241 240 239 242 247 250 252 255 257 257 255